Time,TemperatureF,DewpointF,PressureIn,WindDirection,WindDirectionDegrees,WindSpeedMPH,WindSpeedGustMPH,Humidity,HourlyPrecipIn,Conditions,Clouds,dailyrainin,SoftwareType,DateUTC
2014-04-24 00:01:00,48.0,30.7,30.00,NNW,344,20.0,22.0,51,0.00,,,0.00,meteohub,2014-04-24 04:01:00,
2014-04-24 00:02:00,48.0,30.7,30.00,NNW,339,11.0,22.0,51,0.00,,,0.00,meteohub,2014-04-24 04:02:00,
2014-04-24 00:03:00,48.0,30.7,30.00,NW,306,14.0,22.0,51,0.00,,,0.00,meteohub,2014-04-24 04:03:00,
2014-04-24 00:05:00,48.0,30.7,30.00,NW,325,10.0,22.0,51,0.00,,,0.00,meteohub,2014-04-24 04:05:00,
2014-04-24 00:07:00,48.0,30.7,30.00,NW,311,7.0,22.0,51,0.00,,,0.00,meteohub,2014-04-24 04:07:00,
2014-04-24 00:13:00,47.8,30.6,30.00,NNW,330,16.0,22.0,51,0.00,,,0.00,meteohub,2014-04-24 04:13:00,
2014-04-24 00:18:00,47.8,30.6,30.00,NNW,333,6.0,22.0,51,0.00,,,0.00,meteohub,2014-04-24 04:18:00,
2014-04-24 00:23:00,47.7,30.9,30.00,NNW,342,8.0,21.0,52,0.00,,,0.00,meteohub,2014-04-24 04:23:00,
2014-04-24 00:28:00,47.7,30.9,30.01,NNW,331,6.0,21.0,52,0.00,,,0.00,meteohub,2014-04-24 04:28:00,
2014-04-24 00:33:00,47.7,30.9,30.01,NW,319,11.0,19.0,52,0.00,,,0.00,meteohub,2014-04-24 04:33:00,
2014-04-24 00:38:00,47.5,30.7,30.01,NNW,343,11.0,19.0,52,0.00,,,0.00,meteohub,2014-04-24 04:38:00,
2014-04-24 00:43:00,47.5,30.7,30.01,NW,325,6.0,17.0,52,0.00,,,0.00,meteohub,2014-04-24 04:43:00,
2014-04-24 00:48:00,47.3,30.6,30.01,NW,323,4.0,17.0,52,0.00,,,0.00,meteohub,2014-04-24 04:48:00,
2014-04-24 00:53:00,47.1,30.4,30.02,NW,321,6.0,16.0,52,0.00,,,0.00,meteohub,2014-04-24 04:53:00,
2014-04-24 00:58:00,47.1,30.4,30.02,NNW,336,9.0,15.0,52,0.00,,,0.00,meteohub,2014-04-24 04:58:00,
2014-04-24 01:03:00,47.1,30.4,30.02,NNW,340,6.0,15.0,52,0.00,,,0.00,meteohub,2014-04-24 05:03:00,
2014-04-24 01:09:00,47.1,30.4,30.02,NW,322,9.0,15.0,52,0.00,,,0.00,meteohub,2014-04-24 05:09:00,
2014-04-24 01:14:00,46.9,30.7,30.02,WNW,288,6.0,15.0,53,0.00,,,0.00,meteohub,2014-04-24 05:14:00,
2014-04-24 01:19:00,46.9,30.7,30.02,NW,316,3.0,16.0,53,0.00,,,0.00,meteohub,2014-04-24 05:19:00,
2014-04-24 01:24:00,46.8,30.6,30.02,NW,319,5.0,16.0,53,0.00,,,0.00,meteohub,2014-04-24 05:24:00,